Weather History for KLRD - March, 2013

Change the Weather History Date:

Saturday, March 23, 2013

  Actual Average Record
Temperature  
Mean Temperature 85 °F 70 °F  
Max Temperature 96 °F 82 °F 101 °F (1975)
Min Temperature 73 °F 59 °F 39 °F (1932)
Degree Days  
Heating Degree Days 0 1  
Month to date heating degree days 22 61  
Since 1 July heating degree days 498 905  
Cooling Degree Days 20 7  
Month to date cooling degree days 164 113  
Year to date cooling degree days 318 198  
Growing Degree Days 34 (Base 50)    
Moisture  
Dew Point 60 °F    
Average Humidity 55    
Maximum Humidity 87    
Minimum Humidity 16    
Precipitation  
Precipitation 0.00 in 0.04 in 0.34 in (1900)
Month to date precipitation T 0.87  
Year to date precipitation 0.75 2.71  
Sea Level Pressure  
Sea Level Pressure 29.63 in    
Wind  
Wind Speed 7 mph (ESE)    
Max Wind Speed 20 mph    
Max Gust Speed 23 mph    
Visibility 8 miles    
Events      
T = Trace of Precipitation, MM = Missing Value Source: NWS Daily Summary

Daily Weather History Graph

Daily Weather History Graph

Search for Another Location

Airport or City:

Trip Planner

Search our weather history database for the weather conditions in past years. The results will help you decide how hot, cold, wet, or windy it might be!

Date:

Astronomy

Mar. 23, 2013 Rise Set
Actual Time 7:38 AM CDT 7:50 PM CDT
Civil Twilight 7:14 AM CDT 8:14 PM CDT
Nautical Twilight 6:47 AM CDT 8:41 PM CDT
Astronomical Twilight 6:20 AM CDT 9:08 PM CDT
Moon 4:35 PM CDT (3/23) 4:57 AM CDT (3/23)
Length of Visible Light 12h 59m
Length of Day
12h 12m
Waxing Gibbous, 85% of the Moon is Illuminated
Mar 23
Waxing Gibbous
Mar 27
Full
Apr 2
Last Quarter
Apr 10
New
Apr 18
First Quarter

Hourly Weather History & Observations

Time (CDT) Temp. Heat Index Dew Point Humidity Pressure Visibility Wind Dir Wind Speed Gust Speed Precip Events Conditions
12:56 AM 73.9 °F - 68.0 °F 82% 29.63 in 8.0 mi ESE 10.4 mph - N/A   Clear
1:56 AM 72.9 °F - 68.0 °F 85% 29.64 in 8.0 mi SE 9.2 mph - N/A   Partly Cloudy
2:08 AM 73.4 °F - 68.0 °F 83% 29.68 in 8.0 mi SE 9.2 mph - N/A   Mostly Cloudy
2:56 AM 73.9 °F - 68.0 °F 82% 29.64 in 8.0 mi SE 11.5 mph - N/A   Overcast
3:56 AM 73.9 °F - 66.9 °F 79% 29.64 in 8.0 mi SE 9.2 mph - N/A   Overcast
4:56 AM 73.9 °F - 66.9 °F 79% 29.64 in 7.0 mi SE 5.8 mph - N/A   Overcast
5:12 AM 73.4 °F - 66.2 °F 78% 29.66 in 8.0 mi ESE 10.4 mph - N/A   Overcast
5:56 AM 73.9 °F - 66.9 °F 79% 29.62 in 7.0 mi SE 10.4 mph - N/A   Overcast
6:56 AM 73.9 °F - 65.8 °F 76% 29.63 in 7.0 mi SSE 8.1 mph - N/A   Overcast
7:21 AM 73.4 °F - 66.2 °F 78% 29.68 in 8.0 mi Calm Calm - N/A   Overcast
7:56 AM 73.9 °F - 66.9 °F 79% 29.65 in 7.0 mi SSE 5.8 mph - N/A   Overcast
8:56 AM 73.9 °F - 66.9 °F 79% 29.69 in 6.0 mi Calm Calm - N/A   Haze
9:56 AM 75.9 °F - 66.9 °F 74% 29.70 in 6.0 mi Calm Calm - N/A   Haze
10:56 AM 79.9 °F - 65.8 °F 62% 29.70 in 7.0 mi Calm Calm - N/A   Scattered Clouds
11:56 AM 82.9 °F 85.0 °F 65.8 °F 56% 29.70 in 7.0 mi Variable 5.8 mph - N/A   Clear
12:56 PM 88.0 °F 88.7 °F 63.0 °F 43% 29.67 in 9.0 mi WNW 9.2 mph - N/A   Unknown
1:56 PM 92.8 °F 91.1 °F 55.9 °F 29% 29.63 in 10.0 mi WNW 10.4 mph 18.4 mph N/A   Clear
2:56 PM 95.0 °F - 50.0 °F 22% 29.59 in 10.0 mi West 9.2 mph 18.4 mph N/A   Clear
3:56 PM 96.8 °F - 46.4 °F 18% 29.59 in 10.0 mi NNW 8.1 mph - N/A   Clear
4:56 PM 95.9 °F - 47.8 °F 19% 29.54 in 10.0 mi North 9.2 mph 17.3 mph N/A   Clear
5:56 PM 95.0 °F - 43.9 °F 17% 29.52 in 10.0 mi Calm Calm - N/A   Clear
6:56 PM 95.0 °F - 43.0 °F 17% 29.53 in 10.0 mi NNE 4.6 mph - N/A   Clear
7:56 PM 90.9 °F - 43.0 °F 19% 29.55 in 10.0 mi Calm Calm - N/A   Clear
8:56 PM 86.9 °F - 52.0 °F 30% 29.58 in 10.0 mi ENE 13.8 mph - N/A   Clear
9:56 PM 83.8 °F 82.6 °F 54.0 °F 36% 29.62 in 10.0 mi ENE 11.5 mph - N/A   Clear
10:56 PM 81.0 °F 80.5 °F 54.0 °F 39% 29.65 in 10.0 mi ENE 8.1 mph - N/A   Clear
11:56 PM 77.0 °F - 54.9 °F 46% 29.68 in 10.0 mi SE 8.1 mph - N/A   Clear